Home   Weather   Alexandria   Past weeks

Flag for USA Past Weather in Alexandria, Virginia, USA — Yesterday and Last 2 Weeks

Now
65 °F

Passing clouds.


Feels Like: 65 °F
Forecast: 56 / 72 °F
Wind: 8 mph from South

Location: Reagan National Airport

Current Time: Sep 26, 2016 at 3:14:20 AM

Latest Report: Sep 26, 2016 at 2:52 AM


Visibility: 10 mi

Pressure: 30.16 "Hg

Humidity: 68%

Dew Point: 54 °F

Location of AlexandriaLocation

Past Weather in Alexandria — Graph

°F

Alexandria Temperature Yesterday

Maximum temperature yesterday: 74 °F (at 2:52 PM)
Minimum temperature yesterday: 59 °F (at 6:52 AM)
Average temperature yesterday: 66 °F

High & Low Weather Summary for the Past Weeks

 TemperatureHumidityPressure
High95 °F (Sep 14, 3:52 PM)97% (Sep 18, 7:52 AM)30.29 "Hg (Sep 18, 7:52 AM)
Low59 °F (Sep 25, 6:52 AM)22% (Sep 14, 3:52 PM)29.89 "Hg (Sep 11, 3:52 AM)
Average75 °F69%30.12 "Hg
* Reported Sep 11 1:52 AM — Sep 26 1:52 AM, Alexandria, Weather by CustomWeather, © 2016

Note: Actual official high and low records may vary slightly from our data, if they occured in-between our weather recording intervals... More about our weather records

Advertising

Alexandria Weather History for the Previous 24 Hours

Scroll right to see more
 ConditionsComfort  
Time TempWeatherWind HumidityBarometerVisibility
1:52 AM
Mon, Sep 26
65 °FPassing clouds.3 mph66%30.17 "Hg10 mi
12:52 AM65 °FPassing clouds.5 mph61%30.16 "Hg10 mi
11:52 PM
Sun, Sep 25
66 °FPartly cloudy.6 mph59%30.17 "Hg10 mi
10:52 PM64 °FPartly cloudy.7 mph63%30.18 "Hg10 mi
9:52 PM66 °FPartly cloudy.8 mph59%30.18 "Hg10 mi
8:52 PM66 °FPassing clouds.8 mph59%30.17 "Hg10 mi
7:52 PM67 °FPassing clouds.6 mph59%30.16 "Hg10 mi
6:52 PM69 °FPartly sunny.7 mph55%30.15 "Hg10 mi
5:52 PM72 °FScattered clouds.9 mph48%30.13 "Hg10 mi
4:52 PM74 °FScattered clouds.8 mph40%30.13 "Hg10 mi
3:52 PM74 °FPartly sunny.3 mph37%30.14 "Hg10 mi
2:52 PM74 °FPartly sunny.No wind37%30.16 "Hg10 mi
1:52 PM73 °FPartly sunny.3 mph38%30.18 "Hg10 mi
12:52 PM72 °FScattered clouds.No wind38%30.21 "Hg10 mi
11:52 AM69 °FScattered clouds.3 mph42%30.22 "Hg10 mi
10:52 AM68 °FScattered clouds.7 mph44%30.22 "Hg10 mi
9:52 AM64 °FScattered clouds.9 mph54%30.22 "Hg10 mi
8:52 AM62 °FPassing clouds.10 mph58%30.22 "Hg10 mi
7:52 AM60 °FPassing clouds.9 mph65%30.23 "Hg10 mi
6:52 AM59 °FPassing clouds.8 mph69%30.21 "Hg10 mi
5:52 AM60 °FPassing clouds.13 mph69%30.19 "Hg10 mi
4:52 AM61 °FPassing clouds.12 mph78%30.17 "Hg10 mi
3:52 AM63 °FPassing clouds.10 mph81%30.16 "Hg10 mi
Weather by CustomWeather, © 2016

See weather overviewHow to use our weather pages